x

8775870 - Malaquite Beach (corpus Christi), Tx (mqtt2) Weather Station

3:54pm - Tue 16th Oct 2018 All times are CDT. -5 hours from GMT.

  • Wind
    15mph, 20mph gusts
  • Sea Temp 77°f
  • Air Temp 59°f
  • Sea Pressure 1018.2mb
  • 8775870 - Malaquite Beach (corpus Christi), Tx
  • 8775870 - Malaquite Beach (corpus Christi), Tx

More Historic Weather Station data

Upgrade to MSW Pro to gain access to the past 30 days of data for over 8000 Wavebouys and Weather Stations around the globe.

Join

Comparision Forecast

View Surf forecast
   
Tue 10/16 3:54pm 15 20 mph 1018.2mb 77f 59f
3:48pm 13 20 mph 1018.3mb - -
3:42pm 18 22 mph 1018.1mb 77f 59f
3:36pm 17 21 mph 1018.1mb 77f 59f
3:30pm 16 22 mph 1018.1mb 76f 59f
3:24pm 16 20 mph 1018mb 76f 60f
3:18pm 14 20 mph - - -
3:12pm 14 21 mph 1018.2mb 77f 60f
3:06pm 17 21 mph 1018.1mb 77f 59f
3:00pm 15 21 mph 1018.2mb 76f 59f
2:54pm 16 20 mph 1018.2mb 76f 59f
2:48pm 17 22 mph - - -
2:42pm 15 18 mph 1018.3mb 76f 58f
2:36pm 13 17 mph 1018.8mb 76f 58f
2:30pm 14 18 mph 1018.8mb 76f 59f
2:24pm 15 17 mph 1018.9mb 76f 59f
2:18pm 15 21 mph 1018.8mb 77f 59f
2:12pm 16 20 mph 1018.7mb 76f 58f
2:06pm 15 20 mph 1018.9mb 76f 59f
2:00pm 16 18 mph 1019.1mb 76f 59f
1:54pm 15 17 mph 1019mb 76f 59f
1:48pm 14 18 mph 1019.3mb 76f 58f
1:42pm 14 16 mph 1019.3mb 76f 58f
1:36pm 16 20 mph 1019.4mb 76f 58f
1:30pm 14 17 mph 1019.5mb 77f 59f
1:24pm 15 17 mph 1019.6mb 77f 58f
1:18pm 14 16 mph 1019.9mb 77f 58f
1:12pm 15 17 mph 1020.1mb 77f 58f
1:06pm 11 18 mph 1020.1mb 77f 58f
1:00pm 14 17 mph 1020.1mb 77f 58f
12:54pm 14 20 mph 1019.9mb 77f 58f
12:48pm 17 21 mph 1019.9mb 77f -
12:42pm 16 20 mph 1019.8mb 77f 58f
12:36pm 15 18 mph 1020mb 76f 57f
12:30pm 15 21 mph 1020mb 76f 58f
12:24pm 17 21 mph 1020mb 76f 58f
12:18pm 16 22 mph 1020mb - -
12:12pm 17 21 mph 1020.1mb 76f 58f
12:06pm 16 21 mph 1020.3mb 75f 57f
12:00pm 16 22 mph 1020.3mb 75f 57f
11:18am 17 21 mph 1020.2mb 76f 57f
11:12am 16 21 mph 1020.2mb 76f 57f
11:06am 17 23 mph 1020.2mb 76f 56f
11:00am 17 21 mph 1020.1mb 76f 57f
10:54am 17 23 mph 1020.1mb 76f 57f
10:48am 20 24 mph 1020mb 76f 56f
10:42am 20 23 mph 1020.1mb 76f 56f
10:36am 16 21 mph 1020.1mb 76f 56f
10:30am 20 23 mph 1020.1mb 75f 56f
10:24am 18 23 mph 1020.2mb 75f 56f
10:18am 20 23 mph 1020.3mb 75f -
10:12am 17 21 mph 1020.3mb 75f 55f
10:06am 15 21 mph 1020.3mb 75f 55f
10:00am 21 23 mph 1020.2mb 74f 55f
9:54am 16 22 mph 1020.1mb 74f 55f
9:48am 20 25 mph 1020.1mb 75f 55f
9:42am 21 24 mph 1019.9mb 75f 55f
9:36am 21 25 mph 1019.9mb 76f 55f
9:30am 20 23 mph 1020mb 76f 55f
9:24am 17 25 mph 1019.9mb 76f 55f
9:18am 15 24 mph 1019.7mb 76f 55f
9:12am 21 25 mph 1019.6mb 76f 55f
9:06am 22 26 mph 1019.5mb 76f 55f
9:00am 21 24 mph 1019.5mb 76f 55f
8:54am 18 23 mph 1019.5mb 76f 55f
8:48am 16 24 mph 1019.5mb 76f -
8:42am 17 23 mph 1019.4mb 76f 54f
8:36am 21 25 mph 1019.6mb 76f 54f
8:30am 20 25 mph 1019.3mb 76f 54f
8:24am 16 24 mph 1019.5mb 76f 54f
8:18am 20 25 mph 1019.2mb 76f 54f
8:12am 18 25 mph 1019.2mb 76f 54f
8:06am 16 24 mph 1019.2mb 76f 53f
8:00am 18 26 mph 1019.2mb 77f 53f
7:48am 21 26 mph 1019.3mb 77f 53f
7:42am 18 23 mph 1019.3mb 77f 53f
7:36am 16 23 mph 1019.3mb 77f 53f
7:30am 16 22 mph 1019.2mb 77f 53f
7:24am 15 25 mph 1019.2mb 78f 53f
7:18am 22 28 mph 1019.1mb 78f 53f
7:12am 18 23 mph 1019mb 78f 53f
7:06am 18 23 mph 1019.1mb 77f 52f
7:00am 17 23 mph 1019.3mb 77f 52f
6:54am 20 25 mph 1019mb 77f 53f
6:48am 17 24 mph 1018.8mb 77f 53f
6:42am 20 24 mph 1018.6mb 78f 52f
6:36am 18 25 mph 1018.6mb 78f 53f
6:30am 20 24 mph 1018.6mb 78f 53f
6:24am 18 26 mph 1018.6mb 77f 53f
6:18am 21 26 mph 1018.5mb 77f 53f
6:12am 17 24 mph 1018.7mb 78f 53f
6:06am 20 23 mph 1018.7mb 78f 53f
6:00am 17 26 mph 1018.6mb 78f 53f
5:54am 20 26 mph 1018.7mb 78f 52f
5:48am 23 28 mph 1018.6mb 78f -
5:42am 20 24 mph 1018.6mb 78f 52f
5:36am 18 25 mph 1018.7mb 78f 53f
5:30am 18 24 mph 1018.6mb 78f 53f
5:24am 20 25 mph 1018.5mb 78f 53f
5:18am 18 26 mph 1018.6mb - -
5:12am 21 24 mph 1018.5mb 78f 52f
5:06am 18 26 mph 1018.5mb 78f 53f
5:00am 22 25 mph 1018.6mb 78f 52f
4:54am 18 23 mph 1018.6mb 78f 52f
4:48am 16 21 mph 1018.6mb 77f 53f
4:42am 15 22 mph 1018.6mb 77f 53f
4:36am 18 24 mph 1018.4mb 77f 53f
4:30am 20 25 mph 1018.5mb 78f 52f
4:24am 21 26 mph 1018.3mb 78f 52f
4:18am 22 25 mph 1018.3mb 77f 52f
4:12am 18 23 mph 1018.2mb 78f 53f
4:06am 17 25 mph 1018.3mb 78f 53f
4:00am 21 28 mph 1018.3mb 78f 53f
3:54am 16 22 mph 1018.3mb 78f 54f
3:48am 15 24 mph 1018.3mb 78f -
3:42am 20 25 mph 1018.2mb 78f 53f
3:36am 15 24 mph 1018.1mb 78f 54f
3:30am 18 23 mph 1018.2mb 78f 53f
3:24am 18 23 mph 1018.2mb 78f 53f
3:12am 18 23 mph 1018.5mb 77f 52f
3:06am 14 23 mph 1018.7mb 77f 52f
3:00am 16 23 mph 1018.7mb 78f 53f
2:18am 21 24 mph 1019.3mb 78f -
2:12am 17 23 mph 1019.3mb 77f 52f
2:06am 17 22 mph 1019.3mb 77f 52f
2:00am 17 23 mph 1019.4mb 77f 52f
1:54am 15 22 mph 1019.4mb 76f 52f
1:48am 15 18 mph 1019.5mb 76f 53f
1:42am 16 22 mph 1019.4mb 76f 53f
1:36am 14 20 mph 1019.6mb 76f 53f
1:30am 14 18 mph 1019.7mb 76f 53f
1:24am 14 21 mph 1019.8mb 77f 53f
1:18am 14 22 mph 1019.6mb 78f 53f
1:12am 15 20 mph 1019.5mb 78f 53f
1:06am 17 21 mph 1019.5mb 78f 53f
1:00am 13 18 mph 1019.5mb 78f 53f
12:54am 15 21 mph 1019.4mb 78f 53f
12:48am 16 21 mph 1019.5mb 78f 54f
12:42am 15 22 mph 1019.3mb 77f 54f
12:36am 17 22 mph 1019.4mb 77f 54f
12:30am 17 20 mph 1019.3mb 77f 54f
12:24am 16 22 mph 1019.3mb 77f 54f
12:18am 15 22 mph 1019.3mb 77f 54f
12:12am 15 18 mph 1019.2mb 77f 54f
12:06am 16 18 mph 1019.2mb 77f 54f
12:00am 16 23 mph 1019.2mb 77f 54f
Mon 10/15 11:54pm 16 21 mph 1019.2mb 77f 54f
11:48pm 16 21 mph 1019.2mb 77f 54f
11:42pm 14 18 mph 1019.3mb 77f 54f
11:36pm 14 18 mph 1019.2mb 78f 54f
11:30pm 14 21 mph 1019.1mb 78f 54f
11:24pm 15 24 mph 1018.8mb 78f 54f
11:18pm 18 23 mph 1019mb 77f 54f
11:12pm 21 23 mph 1018.8mb 77f 54f
11:06pm 20 24 mph 1018.8mb 77f 54f
11:00pm 18 23 mph 1019.1mb 78f 54f
10:54pm 18 24 mph 1019mb 78f 54f
10:48pm 18 22 mph 1018.9mb 78f 54f
10:42pm 20 24 mph 1018.9mb 78f 54f
10:36pm 17 23 mph 1018.7mb 78f 54f
10:30pm 17 24 mph 1019mb 78f 54f
10:24pm 20 24 mph 1018.8mb 78f 54f
10:18pm 17 21 mph 1018.7mb 78f 55f
10:12pm 15 23 mph 1018.7mb 78f 55f
10:06pm 20 23 mph 1018.7mb 78f 55f
10:00pm 17 22 mph 1018.7mb 78f 55f
9:48pm 18 22 mph - - -
9:42pm 17 20 mph 1018.6mb 78f 55f
9:36pm 17 21 mph 1018.6mb 78f 56f
9:30pm 15 21 mph 1018.5mb 78f 56f
9:24pm 16 23 mph 1018.6mb 78f 55f
9:18pm 22 26 mph 1018.3mb 79f 55f
9:12pm 18 22 mph 1018.4mb 78f 55f
9:06pm 16 21 mph 1018.2mb 78f 55f
9:00pm 17 23 mph 1018.6mb 78f 55f
8:42pm 20 23 mph 1018.2mb 78f 55f
8:36pm 18 22 mph 1018.2mb 78f 55f
8:30pm 20 23 mph 1018mb 79f 56f
8:24pm 20 24 mph 1017.9mb 79f 56f
8:18pm 18 24 mph 1017.8mb 79f 56f
8:12pm 20 22 mph 1017.8mb 79f 55f
8:06pm 21 26 mph 1017.7mb 79f 56f
8:00pm 22 25 mph 1017.8mb 79f 56f
6:42pm 18 26 mph 1016.8mb 80f 56f
6:36pm 23 31 mph 1016.1mb 80f 57f
6:30pm 23 26 mph 1016.3mb 80f 56f
6:24pm 20 24 mph 1016.7mb 80f 57f
6:12pm 25 31 mph 1015.9mb 81f 56f
6:06pm 23 30 mph 1015.7mb 81f 56f
6:00pm 21 25 mph 1016mb 81f 56f
5:48pm 21 24 mph 1016.4mb - -
5:42pm 21 29 mph 1016.3mb 80f -
5:36pm 21 25 mph 1016.1mb 80f 56f
5:30pm 22 29 mph 1016.1mb 80f 57f
5:24pm 22 29 mph 1016.2mb 80f 56f
5:18pm 22 26 mph 1016.4mb 80f 57f
5:12pm 22 25 mph 1016.3mb 81f 57f
5:06pm 21 29 mph 1016mb 81f 57f
5:00pm 25 30 mph 1015.5mb 80f 57f
3:54pm 22 25 mph 1015.9mb 81f 58f
3:48pm 20 28 mph 1015.7mb 81f 58f
3:42pm 24 28 mph 1015.3mb 81f 58f
3:36pm 21 24 mph 1015.3mb 81f 59f
3:24pm 24 30 mph 1015.4mb 82f 58f
3:18pm 22 28 mph 1015.3mb 82f 59f
3:12pm 24 26 mph 1015.1mb 82f 59f
3:06pm 24 29 mph 1015.1mb 82f 59f
3:00pm 20 28 mph 1014.9mb 82f 59f
2:54pm 24 28 mph 1014.7mb 82f 60f
2:48pm 23 29 mph 1014.6mb 82f -
2:42pm 23 28 mph 1014.7mb 82f 60f
2:36pm 24 30 mph 1014.9mb 82f 60f
2:30pm 25 30 mph 1014.9mb 82f 60f
2:24pm 22 29 mph 1015.2mb 82f 60f
2:18pm 22 28 mph 1015.3mb 82f -
2:12pm 23 29 mph 1015.2mb 82f 61f
2:06pm 23 30 mph 1015.1mb 82f 61f
2:00pm 24 31 mph 1015mb 82f 61f
1:54pm 25 30 mph 1014.9mb 82f 61f
1:48pm 23 29 mph 1015mb 82f 62f
1:42pm 25 31 mph 1015mb 82f 62f
1:36pm 29 33 mph 1015.1mb 82f 62f
1:30pm 29 34 mph 1015mb 82f 62f
1:24pm 28 33 mph 1014.9mb 82f 63f
1:18pm 25 33 mph 1014.9mb 82f 64f
1:12pm 29 33 mph 1014.8mb 82f 63f
1:06pm 25 30 mph 1014.9mb 82f 64f
1:00pm 29 31 mph 1014.9mb 82f -
12:54pm 28 32 mph 1014.9mb 82f -
12:48pm 26 31 mph 1014.9mb 82f -
12:42pm 25 31 mph 1015.1mb 82f -
12:36pm 26 32 mph 1014.9mb 82f -
12:30pm 26 31 mph 1014.9mb 82f -
12:24pm 28 31 mph 1015.1mb 82f -
12:18pm 28 31 mph 1014.9mb 83f -
12:12pm 26 31 mph 1015mb 83f -
12:06pm 28 32 mph 1015mb 83f -
12:00pm 25 31 mph 1015.1mb 83f -
11:54am 28 31 mph 1015mb 83f -
11:48am 30 32 mph 1015.2mb 83f -
11:42am 26 29 mph 1015.2mb 83f -
11:36am 23 28 mph 1015.3mb 83f -
11:30am 22 26 mph 1015.4mb 83f -
11:24am 21 30 mph 1015.5mb 83f -
11:18am 25 31 mph 1015.2mb 83f -
11:12am 25 31 mph 1015.2mb 83f -
11:06am 28 34 mph 1015mb 83f -
11:00am 29 34 mph 1014.8mb 83f -
10:54am 29 33 mph 1014.7mb 83f -
10:48am 31 37 mph 1014.7mb 83f -
10:42am 29 33 mph 1014.6mb 83f -
10:36am 30 34 mph 1014.4mb 83f -
10:30am 29 34 mph 1014.4mb 83f -
10:24am 24 30 mph 1014.2mb 83f -
10:18am 6 10 mph 1013.4mb 83f 84f
10:12am 8 13 mph 1013mb 83f 84f
10:06am 11 14 mph 1012.8mb 83f 84f
10:00am 11 14 mph 1012.6mb 83f 84f
9:54am 13 15 mph 1012.4mb 83f 84f
9:48am 13 15 mph - - -
9:42am 14 16 mph 1012.2mb 83f 84f
9:36am 14 16 mph 1012mb 83f 84f
9:30am 15 17 mph 1012mb 83f 84f
9:24am 14 15 mph 1012mb 83f 84f
9:18am 14 15 mph 1012mb - -
9:12am 14 15 mph 1012mb 83f 84f
9:06am 14 16 mph 1011.9mb 83f 83f
9:00am 13 15 mph 1011.9mb 83f 83f
8:48am 11 14 mph 1011.9mb 83f 84f
8:42am 14 15 mph 1011.8mb 83f 83f
8:36am 11 15 mph 1011.7mb 83f 83f
8:30am 14 15 mph 1011.6mb 83f 83f
8:24am 14 15 mph 1011.5mb 83f 83f
8:18am 13 16 mph 1011.4mb 83f 83f
8:12am 15 16 mph 1011.3mb 83f 83f
8:06am 15 16 mph 1011.2mb 83f 83f
8:00am 15 18 mph 1011.1mb 83f 83f
7:42am 16 18 mph 1010.8mb 83f 83f
7:36am 17 18 mph 1010.8mb 83f 83f
7:30am 16 20 mph 1010.9mb 83f 83f
7:24am 18 20 mph 1010.7mb 83f 83f
7:18am 17 18 mph - - -
7:12am 16 18 mph 1010.7mb 83f 83f
7:06am 16 20 mph 1010.7mb 83f 83f
7:00am 17 20 mph 1010.6mb 83f 83f
6:54am 18 20 mph 1010.6mb 83f 83f
6:42am 18 21 mph 1010.6mb 83f 83f
6:36am 17 21 mph 1010.6mb 83f 83f
6:30am 17 21 mph 1010.5mb 83f 83f
6:24am 17 20 mph 1010.4mb 83f 83f
6:18am 18 21 mph 1010.3mb 83f 83f
6:12am 16 21 mph 1010.3mb 83f 83f
6:06am 17 18 mph 1010.2mb 83f 83f
6:00am 17 20 mph 1010.2mb 83f 83f
5:54am 17 20 mph 1010.2mb 83f 83f
5:48am 20 21 mph 1010.1mb 83f 83f
5:42am 18 21 mph 1010.1mb 83f 83f
5:30am 20 22 mph 1009.9mb 83f 83f
5:24am 17 20 mph 1009.9mb 83f 83f
5:18am 17 18 mph 1010mb - -
5:12am 18 21 mph 1010mb 83f 83f
5:06am 20 22 mph 1010mb 83f 83f
5:00am 16 20 mph 1010.1mb 83f 83f
4:54am 17 22 mph 1010.1mb 83f 83f
4:48am 17 21 mph 1010mb 83f 83f
4:42am 18 22 mph 1010.1mb 83f 83f
4:30am 17 18 mph 1010.2mb 83f 83f
4:24am 17 18 mph 1010.2mb 83f 83f
4:18am 16 18 mph 1010.3mb 83f 83f
4:12am 16 18 mph 1010.4mb 83f 83f
4:06am 18 21 mph 1010.4mb 83f 83f
4:00am 15 18 mph 1010.4mb 83f 83f